Vorticity
1 1 1 1 1 1 3 4 3 3 5 4 4 6 6 9 9 9 9 5 7 6 7 6 5 6 4 12 8 8 7 7 5
2 2 1 0 2 3 2 3 5 6 8 11 13 13 11 13 11 9 9 7 7 9 9 9 8 11 11 9 6 4 7 7 7
3 0 2 1 3 4 4 4 6 8 12 14 15 14 13 13 13 11 10 9 9 7 8 11 10 9 12 7 13 11 10 8 8
3 2 2 2 3 6 9 10 9 16 21 20 21 18 17 15 12 11 11 10 10 9 7 10 11 10 9 12 11 15 17 13 9
2 2 5 3 6 10 10 14 27 25 15 14 14 17 17 15 13 11 13 12 11 10 13 12 10 9 5 8 10 11 12 13 14
2 4 4 8 9 10 20 27 15 16 10 13 14 14 13 13 13 13 12 12 12 13 13 14 13 9 9 12 11 5 3 3 3
2 3 7 7 12 23 19 15 9 1 10 7 7 8 8 9 11 9 8 13 10 11 12 13 16 16 15 10 3 2 3 4 5
3 8 6 10 20 17 15 10 7 6 6 4 4 4 6 13 9 9 15 14 14 12 14 8 12 14 9 3 1 3 3 5 4
6 9 9 19 17 13 12 10 9 6 5 6 5 3 3 6 9 6 -2 -1 4 17 16 10 10 13 7 2 2 1 4 3 4
11 9 16 16 12 14 9 7 9 8 7 5 4 4 5 3 4 7 8 7 2 2 12 22 8 10 12 3 1 2 5 3 3
8 12 15 11 12 12 10 11 11 12 11 11 9 8 7 6 6 5 4 5 7 5 3 11 19 8 12 6 2 3 3 3 4
10 15 10 10 12 10 10 9 7 7 8 10 9 10 9 9 9 10 12 12 10 9 9 5 18 14 8 10 5 4 4 2 3
13 12 7 11 11 5 6 4 3 3 4 5 6 8 9 10 10 13 13 8 9 10 9 4 8 25 9 11 8 4 5 2 2
14 7 10 11 9 6 5 5 1 1 3 6 7 9 12 12 14 16 22 22 15 10 12 10 6 16 16 8 10 3 3 3 3
10 8 9 8 6 4 3 2 3 5 7 10 11 11 12 13 8 11 17 16 24 14 10 9 6 11 22 8 10 7 3 3 3
7 8 7 4 2 1 0 2 4 7 10 10 13 14 11 16 6 7 13 19 14 15 15 12 9 12 22 9 8 7 6 5 4
6 6 5 4 2 2 4 8 13 14 6 2 -1 5 7 11 14 5 7 16 15 18 15 11 11 13 19 10 9 7 6 5 4
4 5 5 4 4 6 13 15 12 5 2 1 1 4 5 6 8 11 7 9 13 16 15 13 11 14 16 10 8 8 7 5 6
5 4 4 8 13 12 8 9 4 3 5 4 5 7 6 5 5 5 7 10 5 10 18 15 13 13 12 10 8 8 8 7 7
4 5 7 7 5 2 5 3 2 1 2 4 5 6 6 5 5 2 2 5 10 5 6 16 14 11 10 9 8 7 8 8 8
Height
5877 5875 5872 5869 5867 5864 5861 5857 5853 5850 5846 5843 5839 5836 5834 5831 5830 5829 5828 5827 5827 5827 5826 5826 5827 5826 5826 5828 5828 5828 5829 5831 5832
5873 5870 5867 5864 5860 5857 5853 5849 5845 5841 5837 5832 5829 5826 5824 5823 5822 5821 5820 5820 5819 5819 5820 5819 5818 5819 5819 5820 5821 5822 5822 5824 5825
5868 5865 5862 5858 5854 5850 5845 5840 5835 5830 5827 5823 5820 5817 5815 5814 5813 5813 5812 5812 5812 5813 5813 5811 5812 5812 5812 5813 5813 5814 5815 5817 5818
5863 5860 5856 5852 5847 5842 5837 5831 5826 5821 5818 5814 5811 5810 5808 5807 5806 5805 5805 5804 5804 5804 5804 5804 5805 5806 5806 5806 5806 5808 5809 5811 5812
5858 5854 5850 5845 5839 5834 5828 5823 5818 5814 5811 5808 5806 5804 5802 5801 5800 5799 5798 5797 5797 5797 5796 5796 5798 5799 5800 5801 5801 5802 5804 5805 5807
5852 5848 5843 5837 5832 5826 5821 5816 5813 5810 5807 5804 5802 5800 5798 5796 5795 5793 5792 5791 5791 5790 5789 5790 5791 5793 5794 5795 5797 5798 5799 5801 5803
5846 5841 5836 5830 5825 5819 5814 5811 5808 5806 5804 5802 5799 5797 5795 5793 5791 5789 5787 5786 5784 5783 5783 5784 5784 5786 5787 5789 5792 5794 5795 5796 5797
5840 5834 5828 5823 5817 5813 5810 5807 5805 5803 5800 5798 5796 5794 5791 5789 5787 5785 5783 5781 5779 5778 5777 5778 5778 5780 5782 5784 5786 5789 5790 5791 5792
5833 5828 5822 5817 5812 5808 5806 5803 5802 5800 5797 5795 5792 5790 5788 5786 5783 5781 5779 5777 5775 5773 5771 5771 5772 5774 5776 5779 5781 5783 5785 5786 5786
5826 5821 5816 5811 5807 5804 5801 5799 5797 5795 5793 5791 5788 5786 5783 5781 5778 5776 5774 5771 5769 5768 5767 5765 5766 5768 5770 5772 5774 5776 5778 5780 5780
5820 5815 5810 5806 5803 5799 5796 5794 5792 5791 5788 5786 5783 5780 5777 5774 5772 5769 5767 5765 5763 5761 5761 5760 5760 5761 5763 5765 5767 5769 5771 5773 5773
5814 5809 5805 5802 5798 5795 5793 5790 5787 5786 5783 5780 5776 5772 5769 5766 5763 5761 5758 5756 5755 5754 5753 5753 5753 5754 5755 5757 5760 5762 5764 5765 5766
5808 5804 5801 5798 5794 5792 5789 5785 5782 5780 5777 5774 5770 5766 5762 5758 5755 5752 5749 5747 5747 5746 5745 5745 5746 5746 5747 5749 5752 5755 5756 5758 5759
5802 5799 5796 5793 5790 5787 5785 5782 5777 5774 5772 5768 5764 5760 5755 5751 5747 5743 5740 5738 5737 5738 5737 5738 5738 5738 5739 5742 5744 5747 5749 5750 5751
5797 5794 5791 5788 5785 5782 5780 5776 5773 5769 5766 5762 5758 5754 5749 5744 5740 5737 5734 5732 5730 5729 5730 5730 5731 5731 5732 5734 5737 5739 5741 5742 5744
5791 5788 5785 5782 5780 5777 5773 5770 5766 5762 5759 5756 5752 5748 5744 5740 5736 5732 5729 5727 5724 5722 5722 5723 5723 5723 5724 5727 5730 5731 5733 5735 5736
5785 5782 5780 5777 5775 5772 5768 5764 5761 5757 5753 5749 5746 5742 5738 5734 5731 5728 5724 5723 5720 5717 5716 5716 5716 5717 5718 5720 5722 5723 5725 5726 5728
5778 5776 5773 5770 5767 5764 5760 5757 5754 5751 5748 5744 5740 5736 5731 5728 5725 5723 5720 5719 5716 5713 5711 5710 5710 5710 5711 5713 5714 5715 5716 5717 5718
5771 5768 5765 5762 5758 5755 5752 5749 5747 5744 5741 5737 5733 5730 5726 5721 5718 5715 5714 5714 5712 5709 5707 5704 5703 5703 5704 5705 5706 5707 5708 5708 5709
5762 5759 5755 5752 5749 5746 5743 5740 5738 5736 5733 5730 5726 5723 5719 5716 5712 5708 5705 5704 5705 5704 5702 5701 5699 5697 5697 5697 5698 5698 5699 5699 5699